Fort Polk, LA

10:50 PM CDT on May 25, 2017 (GMT -0500)
Fort Polk

Weather History for KBKB - May, 2013

Change the Weather History Date:

Wednesday, May 8, 2013

  Actual Average (KPOE) Record (KPOE)
Temperature  
Mean Temperature 70 °F -  
Max Temperature 84 °F 81 °F 91 °F (1998)
Min Temperature 55 °F 62 °F 53 °F (1999)
Cooling Degree Days 4    
Growing Degree Days 20 (Base 50)    
Moisture  
Dew Point 58 °F    
Average Humidity 67    
Maximum Humidity 93    
Minimum Humidity 44    
Precipitation  
Precipitation 0.00 in - - ()
Sea Level Pressure  
Sea Level Pressure 30.11 in    
Wind  
Wind Speed 2 mph (South)    
Max Wind Speed 8 mph    
Max Gust Speed -    
Visibility 10 miles    
Events      
Averages and records for this station are not official NWS values.
T = Trace of Precipitation, MM = Missing Value Source: NWS Daily Summary

Daily Weather History Graph

Daily Weather History Graph

Search for Another Location

Airport or City:

Trip Planner

Search our weather history database for the weather conditions in past years. The results will help you decide how hot, cold, wet, or windy it might be!

Date:

Astronomy

May. 08, 2013 Rise Set
Actual Time 6:21 AM CDT 7:55 PM CDT
Civil Twilight 5:54 AM CDT 8:21 PM CDT
Nautical Twilight 5:23 AM CDT 8:53 PM CDT
Astronomical Twilight 4:50 AM CDT 9:25 PM CDT
Moon 5:24 AM CDT (5/8) 6:57 PM CDT (5/8)
Length of Visible Light 14h 26m
Length of Day
13h 34m
Waning Crescent, 2% of the Moon is Illuminated
May 8
Waning Crescent
May 9
New
May 17
First Quarter
May 24
Full
May 31
Last Quarter

Hourly Weather History & Observations

Time (CDT) Temp. Heat Index Dew Point Humidity Pressure Visibility Wind Dir Wind Speed Gust Speed Precip Events Conditions
12:54 AM 60.1 °F - 55.0 °F 83% 30.10 in 10.0 mi Calm Calm - N/A   Clear
1:54 AM 57.9 °F - 55.0 °F 90% 30.09 in 10.0 mi Calm Calm - N/A   Clear
2:54 AM 57.0 °F - 54.0 °F 89% 30.08 in 10.0 mi Calm Calm - N/A   Clear
3:54 AM 57.0 °F - 55.0 °F 93% 30.08 in 10.0 mi Calm Calm - N/A   Clear
4:54 AM 55.9 °F - 53.1 °F 90% 30.09 in 7.0 mi Calm Calm - N/A   Clear
5:54 AM 55.0 °F - 53.1 °F 93% 30.10 in 7.0 mi Calm Calm - N/A   Clear
6:54 AM 55.0 °F - 53.1 °F 93% 30.12 in 4.0 mi Calm Calm - N/A   Clear
7:54 AM 63.0 °F - 60.1 °F 90% 30.14 in 10.0 mi Calm Calm - N/A   Clear
8:54 AM 70.0 °F - 63.0 °F 78% 30.15 in 10.0 mi Variable 3.5 mph - N/A   Clear
9:54 AM 75.0 °F - 61.0 °F 62% 30.14 in 10.0 mi SW 3.5 mph - N/A   Clear
10:54 AM 78.1 °F - 59.0 °F 52% 30.15 in 10.0 mi Variable 5.8 mph - N/A   Clear
11:54 AM 81.0 °F 81.3 °F 59.0 °F 47% 30.14 in 10.0 mi Variable 5.8 mph - N/A   Clear
12:54 PM 82.0 °F 82.4 °F 60.1 °F 47% 30.13 in 10.0 mi Variable 4.6 mph - N/A   Clear
1:54 PM 84.0 °F 84.0 °F 60.1 °F 44% 30.12 in 10.0 mi SSW 8.1 mph - N/A   Clear
2:54 PM 84.0 °F 84.4 °F 61.0 °F 46% 30.11 in 10.0 mi Variable 6.9 mph - N/A   Scattered Clouds
3:54 PM 81.0 °F 81.7 °F 61.0 °F 50% 30.09 in 10.0 mi Variable 5.8 mph - N/A   Partly Cloudy
4:54 PM 81.0 °F 81.7 °F 61.0 °F 50% 30.09 in 10.0 mi Variable 4.6 mph - N/A   Partly Cloudy
5:54 PM 81.0 °F 81.1 °F 57.9 °F 45% 30.08 in 10.0 mi Variable 4.6 mph - N/A   Clear
6:54 PM 78.1 °F - 55.9 °F 46% 30.08 in 10.0 mi Calm Calm - N/A   Clear
7:54 PM 73.9 °F - 55.0 °F 52% 30.08 in 10.0 mi SE 3.5 mph - N/A   Clear
8:54 PM 71.1 °F - 55.9 °F 59% 30.09 in 10.0 mi Calm Calm - N/A   Clear
9:54 PM 69.1 °F - 57.0 °F 65% 30.10 in 10.0 mi Variable 3.5 mph - N/A   Clear
10:54 PM 68.0 °F - 57.9 °F 70% 30.10 in 10.0 mi Calm Calm - N/A   Clear
11:54 PM 66.9 °F - 60.1 °F 79% 30.08 in 10.0 mi Variable 3.5 mph - N/A   Clear